Regional Weather Roundup
Issued by NWS Memphis, TN

Home | Current Version | Previous Version | Text Only | Print | Product List | Glossary On
Versions: 1 2 3 4 5 6 7 8 9 10 11 12 13 14 15 16 17 18 19 20 21 22 23 24 25 26 27 28 29 30 31 32 33 34 35 36 37 38 39 40 41 42 43 44 45 46 47 48 49 50
000
ASUS44 KMEG 311410
RWRMEG
MEMPHIS CWA HOURLY WEATHER ROUNDUP
NATIONAL WEATHER SERVICE MEMPHIS TN
900 AM CDT TUE MAY 31 2016

...WEST TENNESSEE...

CITY           SKY/WX    TMP DP  RH WIND       PRES   REMARKS
MEMPHIS INTL   CLOUDY    73  69  87 CALM      29.99R
NWS MEMPHIS      N/A     71 N/A N/A MISG        N/A
JACKSON        CLOUDY    73  67  81 W8        30.00R
LEXINGTON      SUNNY     75  66  73 CALM      29.98R
DYERSBURG      CLOUDY    70  66  88 CALM      29.99S
UNION CITY     PTSUNNY   72  70  94 CALM      29.98R
PARIS          SUNNY     73  64  73 SE3       29.99S


...EASTERN ARKANSAS...

CITY           SKY/WX    TMP DP  RH WIND       PRES   REMARKS
JONESBORO      CLOUDY    71  67  87 CALM      29.98F
WEST MEMPHIS   CLOUDY    72  68  87 CALM      29.98R
BATESVILLE     CLOUDY    70  66  88 SE6       29.99S
NEWPORT        CLOUDY    72  70  93 SE5       29.99F
WALNUT RIDGE   CLOUDY    72  64  78 S8        29.99R
BLYTHEVILLE    CLOUDY    72  71  97 CALM      29.99F
NW BLYTHEVILLE CLOUDY    73  68  83 SW5       29.98
SEARCY         CLOUDY    70  68  94 E3        29.99S
STUTTGART      CLOUDY    72  64  78 E8        29.97R
PINE BLUFF       N/A     72  67  84 SE5       29.96
MONTICELLO     MOSUNNY   76  69  79 E6        29.95R


...NORTH MISSISSIPPI...

CITY           SKY/WX    TMP DP  RH WIND       PRES   REMARKS
TUPELO         LGT RAIN  69  64  84 NW10G21   29.99F
OXFORD         CLOUDY    66  64  94 NE3       30.01S
BATESVILLE     MOSUNNY   70  67  89 CALM      29.99S
OLIVE BRANCH   CLOUDY    70  70 100 CALM      29.99S
TUNICA         LGT RAIN  68  64  88 E8        29.98F
CLARKSDALE     MOSUNNY   70  70 100 E7        29.97S
CORINTH        CLOUDY    73  66  78 W8        29.99S
GREENWOOD      MOSUNNY   75  66  73 NE8       29.96S
STARKVILLE     SUNNY     77  64  65 NW12      29.97F
GOLDEN TRIANGL SUNNY     77  64  65 NW12G23   29.98R


...SOUTHEAST MISSOURI...

CITY           SKY/WX    TMP DP  RH WIND       PRES   REMARKS
KENNETT        CLOUDY    73  68  83 SW8       29.98F
WEST PLAINS    LGT RAIN  66  62  87 SE3       30.03R
POPLAR BLUFF   CLOUDY    70  67  90 CALM      29.98S
CAPE GIRARDEAU CLOUDY    73  67  81 SW9       29.99R


...NORTHWEST ALABAMA...

CITY           SKY/WX    TMP DP  RH WIND       PRES   REMARKS
MUSCLE SHOALS  MOSUNNY   79  62  56 CALM      29.99R


...MIDDLE TENNESSEE...

CITY           SKY/WX    TMP DP  RH WIND       PRES   REMARKS
NASHVILLE      CLOUDY    74  62  66 CALM      30.00S
CLARKSVILLE    PTSUNNY   75  64  68 SE5       29.99R
COLUMBIA       SUNNY    N/A N/A N/A CALM      29.98S


...WESTERN KENTUCKY...

CITY           SKY/WX    TMP DP  RH WIND       PRES   REMARKS
PADUCAH        MOSUNNY   75  67  76 CALM      29.97S
FORT CAMPBELL  CLOUDY    74  64  68 E5        29.98S


...CENTRAL ARKANSAS...

CITY           SKY/WX    TMP DP  RH WIND       PRES   REMARKS
LITTLE ROCK    CLOUDY    72  67  84 E3        29.97R


SKY/WX REPORTED AS FAIR MEANS FEW OR NO CLOUDS BELOW
12 THOUSAND FEET.





USA.gov is the U.S. government's official web portal to all federal, state and local government web resources and services.